Tracking 33165 objects as of 7-Feb-2026
HD Live streaming from Space Station
objects crossing your sky now

KUIPER-00184

Track KUIPER-00184 now!
10-day predictions
KUIPER-00184 is classified as:


NORAD ID: 67139
Int'l Code: 2025-301G
Perigee: 456.3 km
Apogee: 471.4 km
Inclination: 51.9 °
Period: 93.7 minutes
Semi major axis: 6834 km
RCS: Unknown
Launch date: December 15, 2025
Source: United States (US)
Launch site: AIR FORCE EASTERN TEST RANGE (AFETR)
Your satellite tracking list
Your tracking list is empty




NASA's NSSDC Master Catalog

Two Line Element Set (TLE):
1 67139U 25301G   26037.81935965  .00061673  00000-0  17034-2 0  9991
2 67139  51.8639 214.7961 0011103 292.3226  67.6583 15.36414752  9262
Source of the keplerian elements: AFSPC